Regional Weather Roundup
Issued by NWS

Home | Current Version | Previous Version | Graphics & Text | Print | Product List | Glossary On
Versions: 1 2 3 4 5 6 7 8 9 10 11 12 13 14 15 16 17 18 19 20 21 22 23 24 25 26 27
000
ASUS45 KSLC 282110
RWRUT

UTAH REGIONAL WEATHER ROUNDUP
NATIONAL WEATHER SERVICE SALT LAKE CITY UT
300 PM MDT SAT MAY 28 2016

UTZ001>011-023>025-282200-

NORTHERN UTAH

CITY           SKY/WX    TMP DP  RH WIND       PRES   REMARKS
BRIGHAM CITY     N/A     68  34  28 CALM      30.05S
HILL AFB       SUNNY     67  40  37 NW7       30.05S
LOGAN          SUNNY     67  39  35 N6        30.05F
OGDEN          SUNNY     69  39  33 NW10      30.03F
PROVO AIRPORT  PTSUNNY   68  41  37 SW14      30.04R
SALT LAKE CITY MOSUNNY   73  42  32 N8        30.01F
VERNAL         CLOUDY    68  33  27 CALM      30.04F
WENDOVER       SUNNY     70  37  30 SE8       30.02F
HEBER CITY     MOSUNNY   72  30  21 SW8       30.03S
WEST JORDAN    SUNNY     70  45  40 N9G16     30.04S

$$

UTZ012>022-026-027-282200-

SOUTHERN/CENTRAL UTAH

CITY           SKY/WX    TMP DP  RH WIND       PRES   REMARKS
BLANDING       MOSUNNY   72  29  20 NE3       30.16F
BRYCE CANYON   CLOUDY    62  28  27 VRB7      30.17S
CEDAR CITY     MOSUNNY   75  25  15 W8        30.01F
DELTA          SUNNY     75  30  19 W7        30.00S
HANKSVILLE     PTSUNNY   77  32  19 S15G29    30.01S
MILFORD        PTSUNNY   74  29  19 NW17      29.98F
MOAB/CYNLANDS  PTSUNNY   78  31  17 VRB3      29.98F
PRICE          MOSUNNY   73  30  20 SW14G22   30.04F
ST GEORGE      PTCLDY    86  32  14 NW5       29.89F
KANAB          MOSUNNY   81  28  15 SE5       30.02F

$$

REGIONAL REPORTS     COLORADO/ARIZONA

CITY           SKY/WX    TMP DP  RH WIND       PRES   REMARKS
CRAIG, CO      CLOUDY    68  33  27 W15G25    30.08S
GRAND JUNCTION SUNNY     73  34  23 VRB3      30.02F
RIFLE          CLOUDY    72  32  23 N8        30.04F
MONTROSE       SUNNY     72  24  16 N10       30.09F
CORTEZ         MOSUNNY   72  25  17 NW13G24   30.09R
PAGE, AZ       SUNNY     83  27  13 N7        29.96F
GRAND CANYON   CLOUDY    69  26  20 E5        30.10F
KINGMAN        MOSUNNY   83  27  13 W8G18     29.91F
FLAGSTAFF      MOSUNNY   66  27  23 S9        30.12S

$$

REGIONAL REPORTS    NEVADA/IDAHO/WYOMING

CITY           SKY/WX    TMP DP  RH WIND       PRES   REMARKS
LAS VEGAS, NV  PTSUNNY   89  27  10 SE3       29.79F
ELY            CLOUDY    65  30  27 SW10G24   30.08R
ELKO           SUNNY     69  33  26 VRB6      30.03F
POCATELLO, ID  MOSUNNY   66  27  23 W17G25    30.08F
BURLEY         SUNNY     63  31  30 W12       30.06F
EVANSTON, WY   PTSUNNY   60  32  34 W15G23    30.12R
ROCK SPRINGS   CLOUDY    61  30  31 W21G30    30.08S
KEMMERER         N/A     59  32  36 W21G28    30.12S

$$




USA.gov is the U.S. government's official web portal to all federal, state and local government web resources and services.